,,,PA_Meas_PMT16A,,PR_Meas_QMR101_102,,RH_Meas_QMH101,,SR_Meas_QMS101,,TA_Meas_QMH101,,GenWind,,GenWind,
date,time,status,PA,status,PR,status,RH,status,SR,status,TA,status,DirAvg,status,SpdAvg,
2012-02-15, 00:00:05,VALID,1009.91,VALID,0,VALID,104,VALID,0,VALID,24.9979,VALID,254,VALID,0,
2012-02-15, 00:01:05,VALID,1009.87,VALID,0,VALID,104,VALID,0.112112,VALID,24.9979,VALID,254,VALID,0,
2012-02-15, 00:02:05,VALID,1009.9,VALID,0,VALID,104,VALID,0.112112,VALID,24.9979,VALID,254,VALID,0.0292969,
2012-02-15, 00:03:05,VALID,1009.88,VALID,0,VALID,104,VALID,0.112112,VALID,24.9979,VALID,256,VALID,0.446094,
2012-02-15, 00:04:05,VALID,1009.87,VALID,0,VALID,104,VALID,0.112112,VALID,25.0388,VALID,258,VALID,0.260938,
2012-02-15, 00:05:05,VALID,1009.87,VALID,0,VALID,104,VALID,0.112112,VALID,24.9979,VALID,258,VALID,0,
2012-02-15, 00:06:05,VALID,1009.83,VALID,0,VALID,104,VALID,0.112112,VALID,25.0193,VALID,258,VALID,0.375,
2012-02-15, 00:07:05,VALID,1009.81,VALID,0,VALID,104,VALID,0.112112,VALID,25.0388,VALID,263,VALID,0.297266,
2012-02-15, 00:08:05,VALID,1009.8,VALID,0,VALID,104,VALID,0.112112,VALID,25.0174,VALID,267,VALID,0.298047,
2012-02-15, 00:09:05,VALID,1009.77,VALID,0,VALID,104,VALID,0.112112,VALID,25.0174,VALID,267,VALID,0.317578,
2012-02-15, 00:10:05,VALID,1009.76,VALID,0,VALID,104,VALID,0.112112,VALID,25.0174,VALID,267,VALID,0.370313,
2012-02-15, 00:11:05,VALID,1009.74,VALID,0,VALID,104,VALID,0.112112,VALID,24.9979,VALID,267,VALID,0.247656,
2012-02-15, 00:12:05,VALID,1009.7,VALID,0,VALID,104,VALID,0.112112,VALID,24.9979,VALID,267,VALID,0.238672,
2012-02-15, 00:13:05,VALID,1009.69,VALID,0,VALID,104,VALID,0.112112,VALID,24.9998,VALID,267,VALID,0.0332031,
2012-02-15, 00:14:05,VALID,1009.68,VALID,0,VALID,104,VALID,0,VALID,24.9998,VALID,267,VALID,0,
2012-02-15, 00:15:05,VALID,1009.72,VALID,0,VALID,104,VALID,0.112112,VALID,24.9803,VALID,267,VALID,0,
2012-02-15, 00:16:05,VALID,1009.72,VALID,0,VALID,104,VALID,0.112112,VALID,24.9589,VALID,267,VALID,0,
2012-02-15, 00:17:05,VALID,1009.74,VALID,0,VALID,104,VALID,0,VALID,24.9394,VALID,267,VALID,0,
2012-02-15, 00:18:05,VALID,1009.74,VALID,0,VALID,104,VALID,0.112112,VALID,24.9589,VALID,267,VALID,0.562109,
2012-02-15, 00:19:05,VALID,1009.71,VALID,0,VALID,104,VALID,0.112112,VALID,24.9218,VALID,293,VALID,0.588281,
2012-02-15, 00:20:05,VALID,1009.72,VALID,0,VALID,104,VALID,0.112112,VALID,24.8809,VALID,293,VALID,0.665625,
2012-02-15, 00:21:05,VALID,1009.68,VALID,0,VALID,104,VALID,0.112112,VALID,24.8828,VALID,294,VALID,0.466797,
2012-02-15, 00:22:05,VALID,1009.69,VALID,0,VALID,104,VALID,0.112112,VALID,24.842,VALID,294,VALID,0.464453,
2012-02-15, 00:23:05,VALID,1009.67,VALID,0,VALID,104,VALID,0,VALID,24.8225,VALID,294,VALID,0.437891,
2012-02-15, 00:24:05,VALID,1009.66,VALID,0,VALID,104,VALID,0,VALID,24.803,VALID,294,VALID,0.214844,
2012-02-15, 00:25:05,VALID,1009.67,VALID,0,VALID,104,VALID,0,VALID,24.803,VALID,294,VALID,0.209766,
2012-02-15, 00:26:05,VALID,1009.63,VALID,0,VALID,104,VALID,0.112112,VALID,24.803,VALID,294,VALID,0.367969,
2012-02-15, 00:27:05,VALID,1009.62,VALID,0,VALID,104,VALID,0.112112,VALID,24.8049,VALID,294,VALID,0.2375,
2012-02-15, 00:28:05,VALID,1009.59,VALID,0,VALID,104,VALID,0.112112,VALID,24.8049,VALID,294,VALID,0.232812,
2012-02-15, 00:29:05,VALID,1009.58,VALID,0,VALID,104,VALID,0.112112,VALID,24.764,VALID,294,VALID,0.0988281,
2012-02-15, 00:30:04,VALID,1009.57,VALID,0,VALID,104,VALID,0,VALID,24.7835,VALID,294,VALID,0,
2012-02-15, 00:31:04,VALID,1009.57,VALID,0,VALID,104,VALID,0.112112,VALID,24.764,VALID,294,VALID,0,
2012-02-15, 00:32:04,VALID,1009.58,VALID,0,VALID,104,VALID,0.112112,VALID,24.764,VALID,294,VALID,0,
2012-02-15, 00:33:04,VALID,1009.57,VALID,0,VALID,104,VALID,0,VALID,24.764,VALID,294,VALID,0,
2012-02-15, 00:34:04,VALID,1009.57,VALID,0,VALID,104,VALID,0.112112,VALID,24.764,VALID,294,VALID,0,
2012-02-15, 00:35:04,VALID,1009.6,VALID,0,VALID,104,VALID,0.112112,VALID,24.8049,VALID,294,VALID,0,
2012-02-15, 00:36:04,VALID,1009.59,VALID,0,VALID,104,VALID,0.112112,VALID,24.8225,VALID,294,VALID,0,
2012-02-15, 00:37:04,VALID,1009.62,VALID,0,VALID,104,VALID,0.112112,VALID,24.842,VALID,294,VALID,0.344531,
2012-02-15, 00:38:04,VALID,1009.61,VALID,0,VALID,104,VALID,0,VALID,24.8828,VALID,294,VALID,0.320703,
2012-02-15, 00:39:04,VALID,1009.61,VALID,0,VALID,104,VALID,0.112112,VALID,24.9023,VALID,294,VALID,0.444531,
2012-02-15, 00:40:04,VALID,1009.6,VALID,0,VALID,104,VALID,0,VALID,24.9413,VALID,294,VALID,0.478516,
2012-02-15, 00:41:04,VALID,1009.58,VALID,0,VALID,104,VALID,0,VALID,24.9413,VALID,266,VALID,0.381641,
2012-02-15, 00:42:04,VALID,1009.57,VALID,0,VALID,104,VALID,0,VALID,24.9803,VALID,266,VALID,0.309766,
2012-02-15, 00:43:04,VALID,1009.56,VALID,0,VALID,104,VALID,0,VALID,24.9822,VALID,194,VALID,0.619141,
2012-02-15, 00:44:04,VALID,1009.51,VALID,0,VALID,104,VALID,0,VALID,24.9998,VALID,187,VALID,0.302734,
2012-02-15, 00:45:04,VALID,1009.48,VALID,0,VALID,104,VALID,0,VALID,24.9998,VALID,187,VALID,0.287109,
2012-02-15, 00:46:04,VALID,1009.48,VALID,0,VALID,104,VALID,0,VALID,25.0193,VALID,187,VALID,0.241406,
2012-02-15, 00:47:04,VALID,1009.46,VALID,0,VALID,104,VALID,0,VALID,25.0388,VALID,187,VALID,0.2375,
2012-02-15, 00:48:04,VALID,1009.46,VALID,0.5,VALID,104,VALID,0,VALID,25.0388,VALID,187,VALID,0.603906,
2012-02-15, 00:49:04,VALID,1009.37,VALID,0,VALID,104,VALID,0,VALID,25.0388,VALID,166,VALID,0.591797,
2012-02-15, 00:50:04,VALID,1009.36,VALID,0,VALID,104,VALID,0,VALID,25.0174,VALID,130,VALID,0.460156,
2012-02-15, 00:51:04,VALID,1009.34,VALID,0,VALID,104,VALID,0,VALID,25.0369,VALID,127,VALID,0.498047,
2012-02-15, 00:52:04,VALID,1009.34,VALID,0,VALID,104,VALID,0,VALID,25.0583,VALID,71,VALID,0.514844,
2012-02-15, 00:53:04,VALID,1009.3,VALID,0,VALID,104,VALID,0,VALID,25.0564,VALID,46,VALID,0.828516,
2012-02-15, 00:54:04,VALID,1009.27,VALID,0,VALID,104,VALID,0,VALID,25.0583,VALID,42,VALID,0.864453,
2012-02-15, 00:55:04,VALID,1009.26,VALID,0,VALID,104,VALID,0,VALID,25.0388,VALID,42,VALID,0.488281,
2012-02-15, 00:56:04,VALID,1009.26,VALID,0,VALID,104,VALID,0,VALID,25.0174,VALID,42,VALID,0.760156,
2012-02-15, 00:57:04,VALID,1009.23,VALID,0,VALID,104,VALID,0.112112,VALID,25.0174,VALID,42,VALID,0.405469,
2012-02-15, 00:58:04,VALID,1009.26,VALID,0,VALID,104,VALID,0,VALID,25.0193,VALID,42,VALID,0.417188,
2012-02-15, 00:59:04,VALID,1009.21,VALID,0,VALID,104,VALID,0,VALID,25.0193,VALID,42,VALID,0.464844,
2012-02-15, 01:00:04,VALID,1009.23,VALID,0.5,VALID,104,VALID,0,VALID,24.9998,VALID,42,VALID,0.35625,
2012-02-15, 01:01:04,VALID,1009.2,VALID,0,VALID,104,VALID,0,VALID,24.9998,VALID,42,VALID,0.344141,
2012-02-15, 01:02:04,VALID,1009.24,VALID,0,VALID,104,VALID,0,VALID,24.9998,VALID,42,VALID,0.297266,
2012-02-15, 01:03:04,VALID,1009.25,VALID,0,VALID,104,VALID,0,VALID,24.9589,VALID,42,VALID,0.239844,
2012-02-15, 01:04:04,VALID,1009.22,VALID,0,VALID,104,VALID,0,VALID,24.9608,VALID,42,VALID,0.240625,
2012-02-15, 01:05:04,VALID,1009.23,VALID,0,VALID,104,VALID,0,VALID,24.9608,VALID,42,VALID,0,
2012-02-15, 01:06:04,VALID,1009.2,VALID,0,VALID,104,VALID,0,VALID,24.9608,VALID,42,VALID,0,
2012-02-15, 01:07:04,VALID,1009.21,VALID,0,VALID,104,VALID,0,VALID,24.9413,VALID,42,VALID,0.0632813,
2012-02-15, 01:08:04,VALID,1009.21,VALID,0,VALID,104,VALID,0,VALID,24.9218,VALID,42,VALID,0,
2012-02-15, 01:09:04,VALID,1009.19,VALID,0,VALID,104,VALID,0,VALID,24.9218,VALID,42,VALID,0,
2012-02-15, 01:10:04,VALID,1009.17,VALID,0,VALID,104,VALID,0,VALID,24.9218,VALID,42,VALID,0,
2012-02-15, 01:11:04,VALID,1009.17,VALID,0,VALID,104,VALID,0,VALID,24.8809,VALID,42,VALID,0,
2012-02-15, 01:12:04,VALID,1009.17,VALID,0,VALID,104,VALID,0,VALID,24.8828,VALID,42,VALID,0,
2012-02-15, 01:13:04,VALID,1009.15,VALID,0,VALID,104,VALID,0,VALID,24.8828,VALID,42,VALID,0,
2012-02-15, 01:14:04,VALID,1009.17,VALID,0,VALID,104,VALID,0,VALID,24.8633,VALID,42,VALID,0,
2012-02-15, 01:15:04,VALID,1009.11,VALID,0,VALID,104,VALID,0,VALID,24.8438,VALID,42,VALID,0,
2012-02-15, 01:16:04,VALID,1009.15,VALID,0,VALID,104,VALID,0,VALID,24.8244,VALID,42,VALID,0,
2012-02-15, 01:17:04,VALID,1009.15,VALID,0,VALID,104,VALID,0,VALID,24.8244,VALID,42,VALID,0,
2012-02-15, 01:18:04,VALID,1009.11,VALID,0,VALID,104,VALID,0,VALID,24.7854,VALID,42,VALID,0,
2012-02-15, 01:19:04,VALID,1009.09,VALID,0,VALID,104,VALID,0,VALID,24.7659,VALID,42,VALID,0,
2012-02-15, 01:20:04,VALID,1009.06,VALID,0,VALID,104,VALID,0,VALID,24.7659,VALID,42,VALID,0,
2012-02-15, 01:21:04,VALID,1009.02,VALID,0,VALID,104,VALID,0,VALID,24.7464,VALID,42,VALID,0,
2012-02-15, 01:22:04,VALID,1009,VALID,0,VALID,104,VALID,0,VALID,24.7659,VALID,42,VALID,0,
2012-02-15, 01:23:04,VALID,1008.96,VALID,0,VALID,104,VALID,0,VALID,24.7464,VALID,42,VALID,0,
2012-02-15, 01:24:04,VALID,1008.94,VALID,0,VALID,104,VALID,0,VALID,24.7464,VALID,42,VALID,0.308203,
2012-02-15, 01:25:04,VALID,1008.93,VALID,0,VALID,104,VALID,0,VALID,24.7269,VALID,42,VALID,0.253906,
2012-02-15, 01:26:04,VALID,1008.94,VALID,0,VALID,104,VALID,0,VALID,24.7074,VALID,42,VALID,0.164844,
2012-02-15, 01:27:04,VALID,1008.96,VALID,0,VALID,104,VALID,0,VALID,24.6666,VALID,42,VALID,0.136719,
2012-02-15, 01:28:04,VALID,1008.94,VALID,0,VALID,104,VALID,0,VALID,24.6879,VALID,42,VALID,0,
2012-02-15, 01:29:04,VALID,1008.93,VALID,0,VALID,104,VALID,0,VALID,24.686,VALID,42,VALID,0,
2012-02-15, 01:30:04,VALID,1008.93,VALID,0,VALID,104,VALID,0,VALID,24.6879,VALID,42,VALID,0,
2012-02-15, 01:31:04,VALID,1008.91,VALID,0,VALID,104,VALID,0,VALID,24.6879,VALID,42,VALID,0.0328125,
2012-02-15, 01:32:04,VALID,1008.89,VALID,0,VALID,104,VALID,0,VALID,24.6471,VALID,42,VALID,0.138672,
2012-02-15, 01:33:04,VALID,1008.89,VALID,0,VALID,104,VALID,0,VALID,24.6471,VALID,42,VALID,0,
2012-02-15, 01:34:04,VALID,1008.91,VALID,0,VALID,104,VALID,0,VALID,24.6276,VALID,42,VALID,0,
2012-02-15, 01:35:04,VALID,1008.9,VALID,0,VALID,104,VALID,0,VALID,24.6276,VALID,42,VALID,0,
2012-02-15, 01:36:04,VALID,1008.93,VALID,0,VALID,104,VALID,0,VALID,24.6081,VALID,42,VALID,0,
2012-02-15, 01:37:04,VALID,1008.92,VALID,0,VALID,104,VALID,0,VALID,24.5886,VALID,42,VALID,0.367969,
2012-02-15, 01:38:04,VALID,1008.91,VALID,0,VALID,104,VALID,0,VALID,24.6099,VALID,42,VALID,0.305469,
2012-02-15, 01:39:04,VALID,1008.91,VALID,0,VALID,104,VALID,0,VALID,24.5886,VALID,42,VALID,0.246094,
2012-02-15, 01:40:04,VALID,1008.93,VALID,0,VALID,104,VALID,0.112112,VALID,24.5691,VALID,42,VALID,0.358203,
2012-02-15, 01:41:04,VALID,1008.89,VALID,0,VALID,104,VALID,0,VALID,24.5691,VALID,42,VALID,0.407813,
2012-02-15, 01:42:04,VALID,1008.89,VALID,0,VALID,104,VALID,0,VALID,24.5886,VALID,42,VALID,0.411328,
2012-02-15, 01:43:04,VALID,1008.86,VALID,0,VALID,104,VALID,0,VALID,24.5886,VALID,42,VALID,0.413281,
2012-02-15, 01:44:04,VALID,1008.86,VALID,0,VALID,104,VALID,0,VALID,24.5886,VALID,42,VALID,0.431641,
2012-02-15, 01:45:04,VALID,1008.85,VALID,0,VALID,104,VALID,0,VALID,24.5691,VALID,42,VALID,0.515234,
2012-02-15, 01:46:04,VALID,1008.83,VALID,0,VALID,104,VALID,0,VALID,24.5691,VALID,42,VALID,0.275781,
2012-02-15, 01:47:04,VALID,1008.83,VALID,0,VALID,104,VALID,0,VALID,24.5691,VALID,42,VALID,0.164453,
2012-02-15, 01:48:04,VALID,1008.82,VALID,0,VALID,104,VALID,0,VALID,24.5691,VALID,42,VALID,0.183203,
2012-02-15, 01:49:04,VALID,1008.81,VALID,0,VALID,104,VALID,0,VALID,24.5496,VALID,42,VALID,0.0328125,
2012-02-15, 01:50:04,VALID,1008.8,VALID,0,VALID,104,VALID,0.112112,VALID,24.5496,VALID,42,VALID,0,
2012-02-15, 01:51:04,VALID,1008.83,VALID,0,VALID,104,VALID,0,VALID,24.5496,VALID,42,VALID,0,
2012-02-15, 01:52:04,VALID,1008.84,VALID,0,VALID,104,VALID,0,VALID,24.5496,VALID,42,VALID,0,
2012-02-15, 01:53:04,VALID,1008.85,VALID,0,VALID,104,VALID,0.112112,VALID,24.5496,VALID,42,VALID,0,
2012-02-15, 01:54:04,VALID,1008.83,VALID,0,VALID,104,VALID,0.112112,VALID,24.5496,VALID,42,VALID,0,
2012-02-15, 01:55:04,VALID,1008.82,VALID,0,VALID,104,VALID,0,VALID,24.5301,VALID,43,VALID,0.133984,
2012-02-15, 01:56:04,VALID,1008.82,VALID,0,VALID,104,VALID,0,VALID,24.5496,VALID,48,VALID,0.389453,
2012-02-15, 01:57:04,VALID,1008.78,VALID,0,VALID,104,VALID,0.112112,VALID,24.5691,VALID,48,VALID,0.440234,
2012-02-15, 01:58:04,VALID,1008.78,VALID,0,VALID,104,VALID,0,VALID,24.5691,VALID,48,VALID,0.600391,
2012-02-15, 01:59:04,VALID,1008.76,VALID,0,VALID,104,VALID,0.112112,VALID,24.5691,VALID,48,VALID,0.583984,
2012-02-15, 02:00:04,VALID,1008.75,VALID,0,VALID,104,VALID,0,VALID,24.5496,VALID,48,VALID,0.591797,
2012-02-15, 02:01:04,VALID,1008.72,VALID,0,VALID,104,VALID,0.112112,VALID,24.5905,VALID,48,VALID,0.575781,
2012-02-15, 02:02:04,VALID,1008.67,VALID,0,VALID,104,VALID,0.112112,VALID,24.5691,VALID,48,VALID,0.525781,
2012-02-15, 02:03:04,VALID,1008.69,VALID,0,VALID,104,VALID,0.112112,VALID,24.5691,VALID,48,VALID,0.662891,
2012-02-15, 02:04:04,VALID,1008.65,VALID,0,VALID,104,VALID,0.112112,VALID,24.5886,VALID,59,VALID,0.689453,
2012-02-15, 02:05:04,VALID,1008.68,VALID,0,VALID,104,VALID,0,VALID,24.5886,VALID,70,VALID,0.965625,
2012-02-15, 02:06:04,VALID,1008.68,VALID,0,VALID,104,VALID,0.112112,VALID,24.6062,VALID,93,VALID,1.08555,
2012-02-15, 02:07:04,VALID,1008.64,VALID,0,VALID,104,VALID,0,VALID,24.6081,VALID,105,VALID,1.21484,
2012-02-15, 02:08:04,VALID,1008.66,VALID,0,VALID,104,VALID,0,VALID,24.6294,VALID,99,VALID,1.62578,
2012-02-15, 02:09:04,VALID,1008.7,VALID,0,VALID,104,VALID,0,VALID,24.6294,VALID,113,VALID,1.25937,
2012-02-15, 02:10:04,VALID,1008.72,VALID,0,VALID,104,VALID,0.112112,VALID,24.6276,VALID,103,VALID,1.14648,
2012-02-15, 02:11:04,VALID,1008.74,VALID,0,VALID,104,VALID,0,VALID,24.6081,VALID,102,VALID,0.917188,
2012-02-15, 02:12:04,VALID,1008.75,VALID,0,VALID,104,VALID,0,VALID,24.6294,VALID,118,VALID,1.09219,
2012-02-15, 02:13:04,VALID,1008.74,VALID,0,VALID,104,VALID,0.112112,VALID,24.6276,VALID,87,VALID,0.895312,
2012-02-15, 02:14:04,VALID,1008.73,VALID,0,VALID,104,VALID,0.112112,VALID,24.6276,VALID,96,VALID,1.96523,
2012-02-15, 02:15:04,VALID,1008.72,VALID,0,VALID,104,VALID,0.112112,VALID,24.6276,VALID,103,VALID,1.44922,
2012-02-15, 02:16:04,VALID,1008.72,VALID,0,VALID,104,VALID,0.112112,VALID,24.6276,VALID,93,VALID,1.39141,
2012-02-15, 02:17:04,VALID,1008.72,VALID,0,VALID,104,VALID,0.112112,VALID,24.6276,VALID,94,VALID,1.41367,
2012-02-15, 02:18:04,VALID,1008.73,VALID,0,VALID,104,VALID,0,VALID,24.6276,VALID,93,VALID,0.640234,
2012-02-15, 02:19:04,VALID,1008.71,VALID,0,VALID,104,VALID,0.112112,VALID,24.6276,VALID,96,VALID,1.05938,
2012-02-15, 02:20:04,VALID,1008.68,VALID,0,VALID,104,VALID,0.112112,VALID,24.6471,VALID,95,VALID,0.985547,
2012-02-15, 02:21:04,VALID,1008.66,VALID,0,VALID,104,VALID,0,VALID,24.6471,VALID,67,VALID,1.66016,
2012-02-15, 02:22:04,VALID,1008.66,VALID,0,VALID,104,VALID,0,VALID,24.6666,VALID,87,VALID,1.35859,
2012-02-15, 02:23:04,VALID,1008.67,VALID,0,VALID,104,VALID,0.112112,VALID,24.6666,VALID,97,VALID,1.29492,
2012-02-15, 02:24:04,VALID,1008.63,VALID,0,VALID,104,VALID,0,VALID,24.6471,VALID,112,VALID,0.667969,
2012-02-15, 02:25:04,VALID,1008.61,VALID,0,VALID,104,VALID,0,VALID,24.6666,VALID,101,VALID,0.932031,
2012-02-15, 02:26:04,VALID,1008.59,VALID,0,VALID,104,VALID,0.112112,VALID,24.6471,VALID,115,VALID,0.764844,
2012-02-15, 02:27:04,VALID,1008.59,VALID,0,VALID,104,VALID,0.112112,VALID,24.6684,VALID,84,VALID,0.785156,
2012-02-15, 02:28:04,VALID,1008.57,VALID,0,VALID,104,VALID,0.112112,VALID,24.6471,VALID,99,VALID,0.423438,
2012-02-15, 02:29:04,VALID,1008.58,VALID,0,VALID,104,VALID,0.112112,VALID,24.6276,VALID,99,VALID,0.630078,
2012-02-15, 02:30:04,VALID,1008.58,VALID,0,VALID,104,VALID,0,VALID,24.6276,VALID,112,VALID,0.930078,
2012-02-15, 02:31:04,VALID,1008.57,VALID,0,VALID,104,VALID,0.112112,VALID,24.6276,VALID,101,VALID,0.795703,
2012-02-15, 02:32:04,VALID,1008.56,VALID,0,VALID,104,VALID,0,VALID,24.6276,VALID,101,VALID,0.9375,
2012-02-15, 02:33:04,VALID,1008.56,VALID,0,VALID,104,VALID,0.112112,VALID,24.6081,VALID,88,VALID,1.18359,
2012-02-15, 02:34:04,VALID,1008.55,VALID,0,VALID,104,VALID,0,VALID,24.5886,VALID,78,VALID,1.09414,
2012-02-15, 02:35:04,VALID,1008.58,VALID,0,VALID,104,VALID,0.112112,VALID,24.6099,VALID,87,VALID,1.10586,
2012-02-15, 02:36:04,VALID,1008.55,VALID,0,VALID,104,VALID,0.112112,VALID,24.6081,VALID,93,VALID,1.39883,
2012-02-15, 02:37:04,VALID,1008.57,VALID,0,VALID,104,VALID,0.112112,VALID,24.5886,VALID,93,VALID,0.987109,
2012-02-15, 02:38:04,VALID,1008.52,VALID,0,VALID,104,VALID,0.112112,VALID,24.5886,VALID,85,VALID,0.828125,
2012-02-15, 02:39:04,VALID,1008.52,VALID,0,VALID,104,VALID,0,VALID,24.5691,VALID,82,VALID,1.45469,
2012-02-15, 02:40:04,VALID,1008.5,VALID,0,VALID,104,VALID,0.112112,VALID,24.5691,VALID,117,VALID,1.13633,
2012-02-15, 02:41:04,VALID,1008.5,VALID,0,VALID,104,VALID,0.112112,VALID,24.5496,VALID,82,VALID,1.15547,
2012-02-15, 02:42:04,VALID,1008.5,VALID,0,VALID,104,VALID,0,VALID,24.5496,VALID,98,VALID,0.846484,
2012-02-15, 02:43:04,VALID,1008.48,VALID,0,VALID,104,VALID,0.112112,VALID,24.5515,VALID,113,VALID,0.605859,
2012-02-15, 02:44:04,VALID,1008.47,VALID,0,VALID,104,VALID,0.112112,VALID,24.5301,VALID,109,VALID,0.685938,
2012-02-15, 02:45:04,VALID,1008.44,VALID,0,VALID,104,VALID,0,VALID,24.532,VALID,97,VALID,0.657422,
2012-02-15, 02:46:04,VALID,1008.44,VALID,0,VALID,104,VALID,0,VALID,24.532,VALID,83,VALID,1,
2012-02-15, 02:47:04,VALID,1008.45,VALID,0,VALID,104,VALID,0,VALID,24.5106,VALID,71,VALID,0.223438,
2012-02-15, 02:48:04,VALID,1008.44,VALID,0,VALID,104,VALID,0.112112,VALID,24.5106,VALID,102,VALID,0.323828,
2012-02-15, 02:49:04,VALID,1008.42,VALID,0,VALID,104,VALID,0,VALID,24.5106,VALID,99,VALID,0.551172,
2012-02-15, 02:50:04,VALID,1008.44,VALID,0,VALID,104,VALID,0,VALID,24.493,VALID,62,VALID,0.475781,
2012-02-15, 02:51:04,VALID,1008.42,VALID,0,VALID,104,VALID,0,VALID,24.4717,VALID,83,VALID,1.55313,
2012-02-15, 02:52:04,VALID,1008.44,VALID,0,VALID,104,VALID,0.112112,VALID,24.4522,VALID,113,VALID,1.02266,
2012-02-15, 02:53:04,VALID,1008.43,VALID,0,VALID,104,VALID,0.112112,VALID,24.4911,VALID,91,VALID,1.2082,
2012-02-15, 02:54:04,VALID,1008.42,VALID,0,VALID,104,VALID,0,VALID,24.4735,VALID,95,VALID,1.31719,
2012-02-15, 02:55:04,VALID,1008.44,VALID,0,VALID,104,VALID,0,VALID,24.493,VALID,86,VALID,1.01641,
2012-02-15, 02:56:04,VALID,1008.43,VALID,0,VALID,104,VALID,0,VALID,24.5144,VALID,82,VALID,1.12031,
2012-02-15, 02:57:04,VALID,1008.44,VALID,0,VALID,104,VALID,0,VALID,24.493,VALID,87,VALID,0.876172,
2012-02-15, 02:58:04,VALID,1008.41,VALID,0,VALID,104,VALID,0,VALID,24.493,VALID,84,VALID,1.21484,
2012-02-15, 02:59:04,VALID,1008.42,VALID,0,VALID,104,VALID,0,VALID,24.4735,VALID,115,VALID,0.978125,
2012-02-15, 03:00:04,VALID,1008.41,VALID,0,VALID,104,VALID,0,VALID,24.493,VALID,123,VALID,1.05742,
2012-02-15, 03:01:04,VALID,1008.4,VALID,0,VALID,104,VALID,0,VALID,24.4735,VALID,111,VALID,0.624609,
2012-02-15, 03:02:04,VALID,1008.39,VALID,0,VALID,104,VALID,0,VALID,24.4949,VALID,80,VALID,0.94375,
2012-02-15, 03:03:04,VALID,1008.38,VALID,0,VALID,104,VALID,0,VALID,24.4949,VALID,86,VALID,0.933594,
2012-02-15, 03:04:04,VALID,1008.39,VALID,0,VALID,104,VALID,0,VALID,24.4735,VALID,90,VALID,0.894141,
2012-02-15, 03:05:04,VALID,1008.39,VALID,0,VALID,104,VALID,0,VALID,24.4754,VALID,93,VALID,0.961328,
2012-02-15, 03:06:04,VALID,1008.39,VALID,0,VALID,104,VALID,0,VALID,24.4735,VALID,97,VALID,1.03203,
2012-02-15, 03:07:04,VALID,1008.38,VALID,0,VALID,104,VALID,0,VALID,24.454,VALID,80,VALID,0.714453,
2012-02-15, 03:08:04,VALID,1008.35,VALID,0,VALID,104,VALID,0,VALID,24.4735,VALID,51,VALID,0.876953,
2012-02-15, 03:09:04,VALID,1008.36,VALID,0,VALID,104,VALID,0,VALID,24.4735,VALID,53,VALID,1.13008,
2012-02-15, 03:10:04,VALID,1008.32,VALID,0,VALID,104,VALID,0,VALID,24.4949,VALID,66,VALID,0.573047,
2012-02-15, 03:11:04,VALID,1008.33,VALID,0,VALID,104,VALID,0,VALID,24.454,VALID,75,VALID,0.922266,
2012-02-15, 03:12:04,VALID,1008.3,VALID,0,VALID,104,VALID,0,VALID,24.454,VALID,69,VALID,1.1418,
2012-02-15, 03:13:04,VALID,1008.32,VALID,0,VALID,104,VALID,0,VALID,24.454,VALID,87,VALID,0.951953,
2012-02-15, 03:14:04,VALID,1008.33,VALID,0,VALID,104,VALID,0,VALID,24.4345,VALID,77,VALID,0.814844,
2012-02-15, 03:15:04,VALID,1008.32,VALID,0,VALID,104,VALID,0,VALID,24.4345,VALID,67,VALID,1.23789,
2012-02-15, 03:16:04,VALID,1008.33,VALID,0,VALID,104,VALID,0,VALID,24.4559,VALID,84,VALID,1.03906,
2012-02-15, 03:17:04,VALID,1008.35,VALID,0,VALID,104,VALID,0,VALID,24.415,VALID,84,VALID,1.2418,
2012-02-15, 03:18:04,VALID,1008.33,VALID,0,VALID,104,VALID,0,VALID,24.415,VALID,89,VALID,0.822656,
2012-02-15, 03:19:04,VALID,1008.34,VALID,0,VALID,104,VALID,0,VALID,24.3956,VALID,73,VALID,1.16992,
2012-02-15, 03:20:04,VALID,1008.34,VALID,0,VALID,104,VALID,0,VALID,24.4169,VALID,77,VALID,0.755078,
2012-02-15, 03:21:04,VALID,1008.32,VALID,0,VALID,104,VALID,0,VALID,24.4169,VALID,69,VALID,1.01836,
2012-02-15, 03:22:04,VALID,1008.33,VALID,0,VALID,104,VALID,0,VALID,24.3956,VALID,73,VALID,1.01367,
2012-02-15, 03:23:04,VALID,1008.34,VALID,0,VALID,104,VALID,0,VALID,24.3761,VALID,68,VALID,1.13047,
2012-02-15, 03:24:04,VALID,1008.33,VALID,0,VALID,104,VALID,0,VALID,24.3761,VALID,87,VALID,1.22266,
2012-02-15, 03:25:04,VALID,1008.3,VALID,0,VALID,104,VALID,0,VALID,24.3761,VALID,61,VALID,0.905078,
2012-02-15, 03:26:04,VALID,1008.3,VALID,0,VALID,104,VALID,0,VALID,24.3566,VALID,50,VALID,1.15703,
2012-02-15, 03:27:04,VALID,1008.27,VALID,0,VALID,104,VALID,0,VALID,24.3779,VALID,80,VALID,0.886719,
2012-02-15, 03:28:04,VALID,1008.27,VALID,0,VALID,104,VALID,0,VALID,24.3371,VALID,45,VALID,0.61875,
2012-02-15, 03:29:04,VALID,1008.24,VALID,0,VALID,104,VALID,0,VALID,24.3371,VALID,46,VALID,0.716016,
2012-02-15, 03:30:04,VALID,1008.26,VALID,0,VALID,104,VALID,0,VALID,24.3389,VALID,48,VALID,0.645312,
2012-02-15, 03:31:04,VALID,1008.22,VALID,0,VALID,104,VALID,0,VALID,24.3389,VALID,67,VALID,0.738672,
2012-02-15, 03:32:04,VALID,1008.2,VALID,0,VALID,104,VALID,0,VALID,24.3194,VALID,53,VALID,0.454688,
2012-02-15, 03:33:04,VALID,1008.21,VALID,0,VALID,104,VALID,0,VALID,24.3176,VALID,71,VALID,1.16836,
2012-02-15, 03:34:04,VALID,1008.21,VALID,0,VALID,104,VALID,0,VALID,24.3194,VALID,75,VALID,0.943359,
2012-02-15, 03:35:04,VALID,1008.2,VALID,0,VALID,104,VALID,0,VALID,24.3194,VALID,93,VALID,0.919141,
2012-02-15, 03:36:04,VALID,1008.21,VALID,0,VALID,104,VALID,0,VALID,24.2786,VALID,79,VALID,0.911719,
2012-02-15, 03:37:04,VALID,1008.21,VALID,0,VALID,104,VALID,0,VALID,24.2981,VALID,80,VALID,0.667969,
2012-02-15, 03:38:04,VALID,1008.21,VALID,0,VALID,104,VALID,0,VALID,24.3,VALID,90,VALID,0.721875,
2012-02-15, 03:39:04,VALID,1008.23,VALID,0,VALID,104,VALID,0,VALID,24.3176,VALID,86,VALID,0.723828,
2012-02-15, 03:40:04,VALID,1008.2,VALID,0,VALID,104,VALID,0,VALID,24.2981,VALID,89,VALID,1.00977,
2012-02-15, 03:41:04,VALID,1008.21,VALID,0,VALID,104,VALID,0,VALID,24.3176,VALID,89,VALID,0.763672,
2012-02-15, 03:42:04,VALID,1008.21,VALID,0,VALID,104,VALID,0,VALID,24.3176,VALID,89,VALID,0.662109,
2012-02-15, 03:43:04,VALID,1008.24,VALID,0,VALID,104,VALID,0.112112,VALID,24.2963,VALID,91,VALID,0.78125,
2012-02-15, 03:44:04,VALID,1008.25,VALID,0,VALID,104,VALID,0,VALID,24.3176,VALID,92,VALID,0.834766,
2012-02-15, 03:45:04,VALID,1008.24,VALID,0,VALID,104,VALID,0.112112,VALID,24.3158,VALID,88,VALID,0.527344,
2012-02-15, 03:46:04,VALID,1008.22,VALID,0,VALID,104,VALID,0.112112,VALID,24.2963,VALID,84,VALID,1.00391,
2012-02-15, 03:47:04,VALID,1008.25,VALID,0,VALID,104,VALID,0.112112,VALID,24.2768,VALID,82,VALID,0.723437,
2012-02-15, 03:48:04,VALID,1008.2,VALID,0,VALID,104,VALID,0.112112,VALID,24.2768,VALID,79,VALID,0.570703,
2012-02-15, 03:49:04,VALID,1008.2,VALID,0,VALID,104,VALID,0.112112,VALID,24.2768,VALID,64,VALID,0.817578,
2012-02-15, 03:50:04,VALID,1008.2,VALID,0,VALID,104,VALID,0,VALID,24.2768,VALID,67,VALID,0.482031,
2012-02-15, 03:51:04,VALID,1008.21,VALID,0,VALID,104,VALID,0.112112,VALID,24.2981,VALID,74,VALID,0.69375,
2012-02-15, 03:52:04,VALID,1008.19,VALID,0,VALID,104,VALID,0,VALID,24.2378,VALID,80,VALID,0.968359,